[[{"header":{"parameterUnit":"m.s-1","parameterCategory":2,"la1":30.2992,"la2":30.254,"lo1":-89.0895,"lo2":-89.0443,"dy":0.0025,"dx":0.0025,"nx":19,"ny":19,"refTime":"2026-04-26T09:00:00:Z","depth":"0","parameterNumber":2,"parameterNumberName":"U-component_of_CURRENTS"},"data":[0,0,0,-0.1601,-0.1602,-0.1637,-0.1637,-0.1593,-0.1592,0,0,0,0,0,0,0,0,0,0,0,-0.1572,-0.1573,-0.1601,-0.1602,-0.1637,-0.1637,-0.1593,-0.1592,0,0,0,0,0,0,0,0,0,0,0,-0.1572,-0.1573,-0.1573,-0.1602,-0.1637,-0.1637,-0.1593,-0.1585,0,0,0,0,0,0,0,0,0,0,-0.1561,-0.1561,-0.1572,-0.1573,-0.1602,-0.1637,-0.1637,-0.1586,-0.1586,-0.1555,0,-0.1561,0,-0.1586,-0.1588,-0.1588,0,0,0,-0.1589,-0.1562,-0.1567,-0.1573,-0.1603,-0.1637,-0.1617,-0.1586,-0.1586,-0.1555,-0.156,-0.156,-0.1585,-0.1588,-0.1588,-0.1565,-0.1566,0,0,-0.1587,-0.1581,-0.1568,-0.1567,-0.161,-0.1616,-0.1619,-0.1587,-0.1586,-0.156,-0.156,-0.1585,-0.1588,-0.1587,-0.1565,-0.1565,0,0,0,-0.159,-0.1579,-0.1587,-0.1568,-0.1588,-0.1618,-0.162,-0.1587,-0.1589,-0.156,-0.1584,-0.1587,-0.1587,-0.1565,-0.1565,-0.1657,0,0,0,-0.1588,-0.1582,-0.1586,-0.1583,-0.1589,-0.1604,-0.1621,-0.1591,-0.1589,-0.1584,-0.1587,-0.1586,-0.1565,-0.1565,-0.1654,-0.1724,0,0,0,-0.1571,-0.1581,-0.1584,-0.1583,-0.1606,-0.1605,-0.1605,-0.1591,-0.1604,-0.1588,-0.1586,-0.1565,-0.1565,-0.1652,-0.1718,-0.1668,0,0,0,-0.1565,-0.1617,-0.1583,-0.165,-0.1605,-0.1659,-0.1606,-0.1635,-0.163,-0.1587,-0.1565,-0.1565,-0.1651,-0.1715,-0.1666,-0.1374,-0.136,0,0,-0.1639,-0.1625,-0.1668,-0.1641,-0.1722,-0.1654,-0.1708,-0.1672,-0.1619,-0.1566,-0.1566,-0.1655,-0.1718,-0.1667,-0.1399,-0.1384,0,0,0,-0.17,-0.1728,-0.1745,-0.1781,-0.1788,-0.1786,-0.1742,-0.1705,-0.1665,-0.1621,-0.1638,-0.1675,-0.1639,-0.1458,-0.1447,-0.1171,-0.1567,-0.1567,-0.1567,-0.1801,-0.1813,-0.1878,-0.1885,-0.1905,-0.1873,-0.1859,-0.179,-0.1721,-0.171,-0.1736,-0.1749,-0.1558,-0.1546,-0.1267,-0.1703,-0.1704,-0.1704,-0.1704,-0.1905,-0.1892,-0.1952,-0.2006,-0.1991,-0.2006,-0.1957,-0.1904,-0.1839,-0.1797,-0.1755,-0.1549,-0.1538,-0.1245,-0.171,-0.1709,-0.1708,-0.1707,-0.1707,-0.1911,-0.1879,-0.1957,-0.1996,-0.2059,-0.205,-0.2009,-0.2006,-0.1932,-0.1927,-0.1624,-0.1618,-0.1366,-0.1862,-0.1862,-0.1862,-0.1862,-0.1862,-0.1862,-0.1784,-0.1863,-0.1836,-0.1951,-0.1957,-0.2001,-0.2018,-0.1953,-0.1811,-0.171,-0.1704,-0.1309,-0.1796,-0.1796,-0.1864,-0.1864,-0.1863,-0.1863,-0.1863,-0.1564,-0.1618,-0.1583,-0.1593,-0.1652,-0.1554,-0.1708,-0.1491,-0.1499,-0.1352,-0.1051,-0.1541,-0.1468,-0.1472,-0.1462,-0.144,-0.144,-0.144,-0.144,-0.1332,-0.1389,-0.1234,-0.1201,-0.1229,-0.1293,-0.0863,-0.0749,-0.0664,-0.056,-0.0729,-0.0596,-0.0626,-0.05,-0.0525,-0.0494,-0.0228,-0.0226,-0.0225,-0.1063,-0.1099,-0.0887,-0.0947,-0.0989,-0.0884,-0.0313,0.0091,0.0041,-0.0161,-0.0411,-0.0462,-0.0263,-0.0331,-0.0132,-0.019,-0.014,0,0]},{"header":{"parameterUnit":"m.s-1","parameterCategory":2,"la1":30.2992,"la2":30.254,"lo1":-89.0895,"lo2":-89.0443,"dy":0.0025,"dx":0.0025,"nx":19,"ny":19,"refTime":"2026-04-26T09:00:00:Z","depth":"0","parameterNumber":3,"parameterNumberName":"V-component_of_CURRENTS"},"data":[0,0,0,0.0306,0.0309,0.0438,0.0438,0.0561,0.0562,0,0,0,0,0,0,0,0,0,0,0,0.0248,0.0249,0.0306,0.0309,0.0438,0.0438,0.0561,0.0562,0,0,0,0,0,0,0,0,0,0,0,0.0248,0.0248,0.0249,0.0309,0.0438,0.0438,0.0561,0.0476,0,0,0,0,0,0,0,0,0,0,0.0357,0.0304,0.0248,0.0249,0.031,0.0437,0.0438,0.0472,0.0481,0.0488,0,0.0496,0,0.0534,0.0568,0.0569,0,0,0,0.0317,0.0297,0.0334,0.0249,0.0311,0.0437,0.0382,0.0478,0.0487,0.05,0.0498,0.0503,0.0536,0.0569,0.057,0.0638,0.0638,0,0,0.031,0.0273,0.0327,0.034,0.0328,0.0378,0.0386,0.0484,0.0484,0.0498,0.0507,0.0538,0.057,0.057,0.0638,0.0638,0,0,0,0.0284,0.0268,0.0304,0.0334,0.0362,0.0381,0.0391,0.048,0.0492,0.0509,0.0539,0.057,0.0571,0.0638,0.0638,0.0577,0,0,0,0.028,0.0253,0.0301,0.0281,0.036,0.0429,0.0384,0.0485,0.0498,0.0539,0.057,0.0572,0.0638,0.0638,0.0578,0.0534,0,0,0,0.0245,0.025,0.026,0.0278,0.0333,0.0428,0.0447,0.0489,0.0517,0.0569,0.0573,0.0638,0.0638,0.058,0.0538,0.0503,0,0,0,0.0211,0.0212,0.0259,0.0282,0.0332,0.0412,0.0447,0.0514,0.0558,0.0571,0.0638,0.0638,0.058,0.054,0.0505,0.0584,0.058,0,0,0.0193,0.0208,0.0227,0.0273,0.0331,0.0396,0.0447,0.0517,0.0558,0.0604,0.0607,0.0578,0.0538,0.0503,0.0587,0.0583,0,0,0,0.0211,0.0211,0.0242,0.0288,0.0365,0.0408,0.0491,0.0515,0.056,0.0584,0.0596,0.0573,0.0553,0.0607,0.0603,0.0707,0.0638,0.0638,0.0638,0.0106,0.0174,0.0195,0.0273,0.0327,0.0423,0.0449,0.0493,0.0549,0.0554,0.0537,0.0486,0.0545,0.0543,0.0649,0.0563,0.0563,0.0563,0.0563,0.0043,0.0038,0.0135,0.017,0.0249,0.0294,0.0389,0.0426,0.0448,0.05,0.0484,0.0557,0.0535,0.0651,0.0559,0.056,0.056,0.056,0.0561,-0.0071,-0.0066,-0.0024,0.0032,0.0088,0.0198,0.0257,0.0315,0.037,0.0365,0.0443,0.0445,0.0533,0.0366,0.0365,0.0365,0.0365,0.0364,0.0364,-0.0226,-0.0175,-0.018,-0.0108,-0.0067,0.0023,0.0169,0.0231,0.0314,0.0373,0.0375,0.0542,0.0426,0.0418,0.0359,0.036,0.036,0.0361,0.0361,-0.0356,-0.0343,-0.0342,-0.0314,-0.0189,0.0007,0.0129,0.0351,0.0346,0.0407,0.053,0.0388,0.0412,0.0417,0.041,0.0352,0.0352,0.0352,0.0352,-0.0464,-0.0452,-0.0432,-0.038,-0.0272,-0.0002,0.0409,0.0671,0.0702,0.0688,0.0583,0.0672,0.0667,0.0711,0.071,0.0711,0.073,0.0731,0.0731,-0.0525,-0.0509,-0.0492,-0.042,-0.028,0.0084,0.0663,0.1154,0.0994,0.0754,0.0707,0.0691,0.0828,0.0813,0.089,0.088,0.0885,0,0]}],[{"header":{"parameterUnit":"m.s-1","parameterCategory":2,"la1":30.2992,"la2":30.254,"lo1":-89.0895,"lo2":-89.0443,"dy":0.0025,"dx":0.0025,"nx":19,"ny":19,"refTime":"2026-04-26T09:00:00:Z","depth":"2","parameterNumber":2,"parameterNumberName":"U-component_of_CURRENTS"},"data":[0,0,0,-0.1161,-0.116,-0.1187,-0.1187,-0.1191,-0.1191,0,0,0,0,0,0,0,0,0,0,0,-0.1182,-0.1182,-0.1161,-0.116,-0.1187,-0.1187,-0.1192,-0.1191,0,0,0,0,0,0,0,0,0,0,0,-0.1182,-0.1182,-0.1182,-0.116,-0.1186,-0.1187,-0.1192,-0.1187,0,0,0,0,0,0,0,0,0,0,-0.1168,-0.1172,-0.1182,-0.1182,-0.116,-0.1186,-0.1187,-0.1187,-0.1187,-0.1161,0,-0.1167,0,-0.115,-0.1188,-0.1188,0,0,0,-0.1192,-0.1172,-0.1176,-0.1182,-0.116,-0.1186,-0.1184,-0.1188,-0.1187,-0.1161,-0.1167,-0.1167,-0.115,-0.1187,-0.1187,-0.1072,-0.1071,0,0,-0.1191,-0.1188,-0.1176,-0.1176,-0.1168,-0.1183,-0.1184,-0.1188,-0.1189,-0.1167,-0.1166,-0.115,-0.1187,-0.1187,-0.1073,-0.1072,0,0,0,-0.1165,-0.1187,-0.1193,-0.1176,-0.1167,-0.1183,-0.1184,-0.119,-0.1191,-0.1166,-0.115,-0.1187,-0.1186,-0.1074,-0.1073,-0.113,0,0,0,-0.1166,-0.117,-0.1192,-0.1191,-0.1167,-0.1177,-0.1186,-0.1192,-0.1191,-0.115,-0.1187,-0.1186,-0.1075,-0.1073,-0.1131,-0.1144,0,0,0,-0.118,-0.117,-0.1174,-0.1191,-0.1184,-0.1177,-0.1181,-0.1193,-0.1178,-0.1188,-0.1186,-0.1076,-0.1074,-0.1132,-0.1144,-0.1061,0,0,0,-0.1177,-0.1223,-0.1175,-0.1215,-0.1183,-0.1168,-0.1181,-0.1189,-0.12,-0.1187,-0.1075,-0.1073,-0.1132,-0.1145,-0.1062,-0.0921,-0.0902,0,0,-0.1242,-0.123,-0.1255,-0.1212,-0.1204,-0.1167,-0.1147,-0.1178,-0.1149,-0.108,-0.1078,-0.1131,-0.1144,-0.1061,-0.0799,-0.0784,0,0,0,-0.1281,-0.1301,-0.1288,-0.1271,-0.1223,-0.1155,-0.1152,-0.1126,-0.1101,-0.1136,-0.1071,-0.1076,-0.1023,-0.0939,-0.0926,-0.1063,-0.1063,-0.1063,-0.1064,-0.1386,-0.1356,-0.1366,-0.1307,-0.127,-0.116,-0.1121,-0.1068,-0.1075,-0.105,-0.108,-0.0996,-0.0907,-0.0896,-0.1035,-0.1035,-0.1035,-0.1035,-0.1035,-0.1476,-0.1426,-0.1414,-0.1415,-0.1289,-0.1247,-0.1106,-0.1084,-0.1007,-0.1033,-0.0979,-0.095,-0.0886,-0.1039,-0.1038,-0.1038,-0.1037,-0.1037,-0.1037,-0.1477,-0.1419,-0.1488,-0.1446,-0.1391,-0.1275,-0.1181,-0.1114,-0.104,-0.1016,-0.0865,-0.0863,-0.1028,-0.099,-0.099,-0.0989,-0.0989,-0.0989,-0.0989,-0.1366,-0.1422,-0.1413,-0.1429,-0.1391,-0.1319,-0.1197,-0.1092,-0.0924,-0.0878,-0.0875,-0.0979,-0.098,-0.102,-0.0984,-0.0985,-0.0985,-0.0986,-0.0986,-0.1178,-0.1254,-0.1224,-0.1226,-0.1169,-0.1036,-0.1054,-0.0816,-0.0737,-0.0608,-0.075,-0.0757,-0.0705,-0.0712,-0.0741,-0.0636,-0.0636,-0.0636,-0.0636,-0.0999,-0.1053,-0.0969,-0.0942,-0.0885,-0.0853,-0.0555,-0.0433,-0.0409,-0.0449,-0.0458,-0.0467,-0.0484,-0.0421,-0.0435,-0.0459,-0.028,-0.028,-0.0279,-0.0811,-0.0832,-0.0698,-0.0747,-0.0725,-0.0569,-0.0217,-0.0054,-0.0174,-0.0271,-0.0459,-0.0599,-0.0637,-0.0655,-0.0578,-0.0594,-0.064,0,0]},{"header":{"parameterUnit":"m.s-1","parameterCategory":2,"la1":30.2992,"la2":30.254,"lo1":-89.0895,"lo2":-89.0443,"dy":0.0025,"dx":0.0025,"nx":19,"ny":19,"refTime":"2026-04-26T09:00:00:Z","depth":"2","parameterNumber":3,"parameterNumberName":"V-component_of_CURRENTS"},"data":[0,0,0,-0.0087,-0.0087,-0.0015,-0.0014,0.0108,0.0109,0,0,0,0,0,0,0,0,0,0,0,-0.0078,-0.0078,-0.0087,-0.0087,-0.0015,-0.0014,0.0108,0.0109,0,0,0,0,0,0,0,0,0,0,0,-0.0078,-0.0078,-0.0078,-0.0087,-0.0015,-0.0014,0.0108,0.0058,0,0,0,0,0,0,0,0,0,0,-0.0011,-0.0049,-0.0078,-0.0078,-0.0087,-0.0016,-0.0014,0.0056,0.0061,0.0069,0,0.0072,0,0.0056,0.0113,0.0114,0,0,0,-0.0038,-0.0054,-0.0026,-0.0078,-0.0087,-0.0016,-0.0034,0.0059,0.0065,0.0076,0.0073,0.0077,0.0058,0.0114,0.0114,0.0102,0.0101,0,0,-0.0042,-0.007,-0.003,-0.0022,-0.0079,-0.0036,-0.0032,0.0063,0.0059,0.0074,0.0079,0.006,0.0114,0.0115,0.0103,0.0102,0,0,0,-0.0087,-0.0073,-0.0046,-0.0026,-0.0036,-0.0036,-0.003,0.0056,0.0067,0.008,0.0062,0.0114,0.0115,0.0103,0.0102,0.0112,0,0,0,-0.0087,-0.0102,-0.0048,-0.0064,-0.0039,-0.0003,-0.004,0.0063,0.0071,0.0061,0.0115,0.0116,0.0104,0.0103,0.0113,0.0137,0,0,0,-0.008,-0.0103,-0.0094,-0.0066,-0.006,-0.0005,0.0014,0.0065,0.0057,0.0114,0.0116,0.0104,0.0103,0.0114,0.0138,0.02,0,0,0,-0.0107,-0.0107,-0.0095,-0.0088,-0.0061,-0.0051,0.0013,0.0046,0.009,0.0115,0.0104,0.0102,0.0114,0.0138,0.0199,0.0224,0.0229,0,0,-0.012,-0.0109,-0.0098,-0.0087,-0.0087,-0.0057,-0.0045,0.0051,0.0067,0.0085,0.0085,0.0112,0.0138,0.0199,0.0138,0.0147,0,0,0,-0.011,-0.0109,-0.0106,-0.0097,-0.0087,-0.007,-0.0021,0.0008,0.006,0.0074,0.0079,0.0095,0.0135,0.0146,0.0152,0.0095,0.0096,0.0096,0.0096,-0.0181,-0.014,-0.0138,-0.0107,-0.0097,-0.0071,-0.0029,0.0011,0.0022,0.0033,0.0077,0.0096,0.0103,0.0109,0.0037,0.0037,0.0037,0.0037,0.0037,-0.0216,-0.0221,-0.0154,-0.0139,-0.0109,-0.0095,-0.0032,0.0001,0.0071,0.0047,0.0085,0.0122,0.0117,0.0037,0.0037,0.0037,0.0037,0.0037,0.0037,-0.0299,-0.0295,-0.0251,-0.0206,-0.0152,-0.0104,-0.0005,0.004,0.0085,0.0127,0.0175,0.0175,0.0156,0.0156,0.0156,0.0156,0.0157,0.0157,0.0157,-0.0415,-0.0364,-0.0356,-0.0283,-0.0245,-0.0155,-0.0001,0.008,0.0172,0.0199,0.02,0.0138,0.0134,0.0163,0.0162,0.0161,0.0161,0.016,0.016,-0.051,-0.049,-0.048,-0.0449,-0.0334,-0.0212,-0.0062,0.016,0.026,0.0315,0.0254,0.025,0.0267,0.0261,0.0292,0.0326,0.0326,0.0326,0.0326,-0.0589,-0.0576,-0.0548,-0.0502,-0.043,-0.024,-0.0042,0.0116,0.0249,0.0248,0.025,0.0194,0.019,0.0199,0.0195,0.0223,0.0239,0.0238,0.0238,-0.0624,-0.0618,-0.0599,-0.0541,-0.0458,-0.0249,-0.0056,0.0099,0.0198,0.0228,0.0169,0.0333,0.0256,0.0247,0.0265,0.0256,0.0303,0,0]}],[{"header":{"parameterUnit":"m.s-1","parameterCategory":2,"la1":30.2992,"la2":30.254,"lo1":-89.0895,"lo2":-89.0443,"dy":0.0025,"dx":0.0025,"nx":19,"ny":19,"refTime":"2026-04-26T09:00:00:Z","depth":"4","parameterNumber":2,"parameterNumberName":"U-component_of_CURRENTS"},"data":[0,0,0,0.0011,0.0011,-0.0025,-0.0026,-0.0286,-0.0289,0,0,0,0,0,0,0,0,0,0,0,0.0006,0.0007,0.0011,0.0011,-0.0025,-0.0026,-0.0286,-0.0289,0,0,0,0,0,0,0,0,0,0,0,0.0006,0.0007,0.0007,0.0011,-0.0025,-0.0026,-0.0285,-0.0213,0,0,0,0,0,0,0,0,0,0,-0.0155,-0.0105,0.0007,0.0007,0.0011,-0.0025,-0.0026,-0.0208,-0.0218,-0.032,0,-0.0309,0,-0.0288,-0.0308,-0.0309,0,0,0,-0.0024,-0.0096,-0.0107,0.0007,0.0012,-0.0025,-0.0019,-0.0212,-0.0224,-0.0335,-0.0312,-0.032,-0.0292,-0.031,-0.0311,-0.0539,-0.054,0,0,-0.0022,-0.0011,-0.0098,-0.0114,0.0018,-0.0017,-0.0019,-0.0217,-0.0227,-0.0313,-0.0325,-0.0297,-0.0312,-0.0314,-0.0539,-0.0539,0,0,0,0.0008,-0.0009,-0.0012,-0.0105,-0.0085,-0.0017,-0.002,-0.0218,-0.0219,-0.0327,-0.03,-0.0314,-0.0317,-0.0539,-0.0539,-0.0516,0,0,0,0.0007,0.0011,-0.0011,-0.0007,-0.0079,-0.0118,-0.0017,-0.0206,-0.0225,-0.0299,-0.0314,-0.032,-0.0538,-0.0539,-0.0516,-0.0453,0,0,0,0.0005,0.001,0.0012,-0.0006,-0.0003,-0.0114,-0.0125,-0.0209,-0.0209,-0.0309,-0.0321,-0.0538,-0.0539,-0.0516,-0.0455,-0.0353,0,0,0,0.0007,0.0018,0.0012,0.0023,-0.0002,-0.0026,-0.0123,-0.0206,-0.029,-0.0315,-0.0538,-0.0539,-0.0516,-0.0456,-0.0356,-0.0428,0,0,0,0.0022,0.002,0.0025,0.002,0.0021,-0.0025,-0.0062,-0.0236,-0.0339,-0.0494,-0.0498,-0.0516,-0.0455,-0.0354,-0.0479,0,0,0,0,0.0029,0.0034,0.0033,0.0033,0.0012,-0.003,-0.0148,-0.0224,-0.0406,-0.0382,-0.054,-0.0501,-0.0438,-0.0491,-0.0543,-0.0543,-0.0543,-0.0543,-0.0543,0.0059,0.0048,0.0048,0.0029,0.0008,-0.0068,-0.0124,-0.0259,-0.0382,-0.0473,-0.0503,-0.0432,-0.0497,-0.0554,-0.0554,-0.0554,-0.0554,-0.0554,-0.0554,0.0075,0.0039,0.0048,0.0042,0.0001,-0.0045,-0.0166,-0.0259,-0.0357,-0.0486,-0.0427,-0.0492,-0.0552,-0.0553,-0.0553,-0.0553,-0.0553,-0.0553,-0.0553,0.0073,0.003,0.0061,0.0022,-0.0009,-0.0073,-0.0151,-0.0238,-0.0312,-0.0307,-0.0345,-0.0374,-0.0347,-0.0298,-0.0298,-0.0297,-0.0296,-0.0296,-0.0296,-0.0006,0.0013,-0.0012,-0.0025,-0.0062,-0.0113,-0.0167,-0.0193,-0.022,-0.0279,-0.0295,-0.0344,-0.0352,-0.0331,-0.0285,-0.0287,-0.0288,-0.0289,-0.029,-0.0113,-0.01,-0.013,-0.0151,-0.0206,-0.0212,-0.0225,-0.0187,-0.0164,-0.0134,-0.024,-0.0246,-0.023,-0.0239,-0.0213,-0.013,-0.0131,-0.0131,0,-0.0212,-0.0203,-0.0245,-0.0274,-0.0318,-0.0284,-0.0307,-0.0258,-0.0178,-0.0186,-0.0141,-0.0262,-0.0268,-0.0255,-0.0264,-0.0238,0,0,0,-0.0302,-0.0293,-0.0316,-0.0306,-0.0349,-0.032,-0.0294,-0.0276,-0.0211,-0.0182,-0.0147,-0.0143,-0.0292,-0.0253,-0.0239,-0.0249,-0.0212,0,0]},{"header":{"parameterUnit":"m.s-1","parameterCategory":2,"la1":30.2992,"la2":30.254,"lo1":-89.0895,"lo2":-89.0443,"dy":0.0025,"dx":0.0025,"nx":19,"ny":19,"refTime":"2026-04-26T09:00:00:Z","depth":"4","parameterNumber":3,"parameterNumberName":"V-component_of_CURRENTS"},"data":[0,0,0,-0.052,-0.0522,-0.0686,-0.0687,-0.0829,-0.0829,0,0,0,0,0,0,0,0,0,0,0,-0.0484,-0.0485,-0.052,-0.0522,-0.0686,-0.0687,-0.0828,-0.0829,0,0,0,0,0,0,0,0,0,0,0,-0.0484,-0.0485,-0.0486,-0.0523,-0.0686,-0.0687,-0.0828,-0.0732,0,0,0,0,0,0,0,0,0,0,-0.0585,-0.0554,-0.0485,-0.0486,-0.0523,-0.0685,-0.0688,-0.0728,-0.0737,-0.0722,0,-0.074,0,-0.0758,-0.0833,-0.0833,0,0,0,-0.0564,-0.0547,-0.0571,-0.0486,-0.0524,-0.0685,-0.0624,-0.0734,-0.0745,-0.0734,-0.0742,-0.0747,-0.076,-0.0834,-0.0834,-0.087,-0.087,0,0,-0.0555,-0.0535,-0.0564,-0.0578,-0.0555,-0.0618,-0.0628,-0.0742,-0.0756,-0.0743,-0.0751,-0.0763,-0.0834,-0.0834,-0.087,-0.087,0,0,0,-0.0501,-0.0529,-0.0554,-0.0572,-0.0591,-0.0622,-0.0634,-0.0753,-0.0756,-0.0752,-0.0764,-0.0834,-0.0835,-0.087,-0.087,-0.0852,0,0,0,-0.0497,-0.0494,-0.055,-0.0543,-0.0588,-0.0683,-0.0642,-0.075,-0.0762,-0.0764,-0.0834,-0.0836,-0.087,-0.087,-0.0853,-0.0805,0,0,0,-0.0479,-0.0492,-0.0504,-0.0541,-0.0589,-0.0681,-0.0695,-0.0754,-0.0766,-0.0833,-0.0836,-0.087,-0.087,-0.0853,-0.0808,-0.0702,0,0,0,-0.0465,-0.0494,-0.0504,-0.0547,-0.0587,-0.0676,-0.0695,-0.0795,-0.086,-0.0835,-0.087,-0.087,-0.0854,-0.0809,-0.0705,-0.063,0,0,0,-0.0491,-0.0497,-0.0522,-0.0534,-0.0587,-0.0657,-0.0726,-0.0824,-0.0841,-0.0835,-0.0837,-0.0853,-0.0808,-0.0703,-0.0622,0,0,0,0,-0.0524,-0.0536,-0.0558,-0.0592,-0.0651,-0.0694,-0.0797,-0.0819,-0.0858,-0.0867,-0.0854,-0.0825,-0.076,-0.0726,-0.0869,-0.0869,-0.0869,-0.0869,-0.0869,-0.0541,-0.0559,-0.059,-0.062,-0.0665,-0.0742,-0.0777,-0.0813,-0.0857,-0.0866,-0.0815,-0.0724,-0.0693,-0.0839,-0.0839,-0.0839,-0.0839,-0.0839,-0.0839,-0.0558,-0.0565,-0.0585,-0.0616,-0.0642,-0.0696,-0.0742,-0.0778,-0.0739,-0.0803,-0.074,-0.0717,-0.0837,-0.0838,-0.0838,-0.0838,-0.0838,-0.0838,-0.0839,-0.056,-0.0555,-0.0578,-0.0595,-0.0607,-0.0655,-0.0608,-0.0646,-0.0683,-0.0644,-0.0546,-0.0669,-0.0661,-0.0596,-0.0595,-0.0594,-0.0594,-0.0593,-0.0593,-0.0534,-0.055,-0.0553,-0.0564,-0.0565,-0.0546,-0.052,-0.0475,-0.0488,-0.0473,-0.0601,-0.0639,-0.0647,-0.0644,-0.0583,-0.0585,-0.0586,-0.0587,-0.0588,-0.0513,-0.052,-0.0528,-0.0527,-0.0495,-0.0457,-0.0424,-0.0291,-0.0211,-0.0162,-0.0368,-0.0381,-0.0353,-0.0367,-0.0353,-0.0203,-0.0202,-0.02,0,-0.049,-0.0493,-0.0498,-0.0483,-0.0428,-0.0404,-0.0264,-0.019,-0.0172,-0.0202,-0.0247,-0.0489,-0.0496,-0.0478,-0.0487,-0.0478,0,0,0,-0.0464,-0.0479,-0.0477,-0.047,-0.0404,-0.0284,-0.0225,-0.017,-0.0209,-0.0051,-0.0167,-0.0176,-0.0391,-0.0553,-0.054,-0.055,-0.0542,0,0]}]]